Location: Unspecified
(44.5648°N, 0.0000°E)
Time: 18:30:17
(UTC+00:00)

SL-16 Debris - Visible Passes

Search period start: 04 April 2026 00:00
Search period end: 14 April 2026 00:00
Orbit: 793 x 1016 km, 99.2° (Epoch: 29 March)

Date Brightness Start Highest point End Pass type
(mag) Time Alt. Az. Time Alt. Az. Time Alt. Az.
4 Apr ? 19:59:31 23° ESE 20:03:02 43° ENE 20:08:50 10° N visible
4 Apr ? 21:42:38 28° SW 21:44:47 36° W 21:50:27 10° NNW visible
5 Apr ? 20:03:24 23° SE 20:06:55 46° ENE 20:12:45 10° N visible
5 Apr ? 21:46:32 27° SW 21:48:43 33° W 21:54:16 10° NNW visible
6 Apr ? 20:07:17 24° SE 20:10:49 48° ENE 20:16:41 10° N visible
6 Apr ? 21:50:25 25° SW 21:52:40 31° W 21:58:06 10° NW visible
7 Apr ? 20:11:10 25° SE 20:14:42 52° ENE 20:20:37 10° N visible
7 Apr ? 21:54:18 23° SW 21:56:37 29° W 22:01:55 10° NW visible
8 Apr ? 20:15:04 25° SE 20:18:36 55° ENE 20:24:32 10° N visible
8 Apr ? 21:58:12 22° SW 22:00:34 27° W 22:05:42 10° NW visible
9 Apr ? 20:18:57 26° SE 20:22:29 58° ENE 20:28:27 10° N visible
9 Apr ? 22:02:05 20° SW 22:04:30 25° W 22:09:29 10° NW visible
10 Apr ? 20:22:50 26° SE 20:26:23 62° ENE 20:32:21 10° N visible
10 Apr ? 22:05:59 19° SW 22:08:27 24° W 22:13:15 10° NW visible
11 Apr ? 20:26:44 27° SE 20:30:16 66° ENE 20:36:15 10° N visible
11 Apr ? 22:09:53 17° WSW 22:12:24 22° W 22:17:00 10° NW visible
12 Apr ? 20:30:37 27° SSE 20:34:10 70° ENE 20:40:09 10° N visible
12 Apr ? 22:13:45 16° WSW 22:16:20 20° W 22:20:44 10° NW visible
13 Apr ? 20:34:31 27° SSE 20:38:03 75° ENE 20:44:03 10° NNW visible
13 Apr ? 22:17:39 15° WSW 22:20:17 19° W 22:24:26 10° NW visible
